Location: Callao
(39.8979°N, 113.7141°W)
Time: 12:40:49
(UTC+00:00)

X-37B - Pass Details

Date: 11 March 2021
Orbit: 380 x 394 km, 45.0° (Epoch: 07 April)

Event Time Altitude Azimuth Distance (km) Brightness Sun altitude
Rises 02:16:46 0° 205° (SSW) 2,255 4.8 -8.5°
Reaches altitude 10° 02:19:18 10° 184° (S) 1,409 3.4 -8.9°
Maximum altitude 02:21:26 17° 141° (SE) 1,075 2.4 -9.4°
Enters shadow 02:22:52 13° 110° (ESE) 1,237 2.5 -9.6°
